| time (UTC) | temp F | wind direction | speed knots | gust knots | rain 1hr in | rain 24hr in | rain mn in | humidity % | barometer mb |
| 20260906161322 | 88 | 18 | 4.3 | 7.8 | 0.00 | 0.67 | 0.00 | 78 | 1014.1 |
| 20260906160311 | 86 | 58 | 4.3 | 8.7 | 0.00 | 0.67 | 0.00 | 77 | 1014.2 |
| 20260906155333 | 86 | 84 | 6.1 | 9.6 | 0.00 | 0.67 | 0.00 | 78 | 1014.2 |
| 20260906154309 | 86 | 25 | 3.5 | 9.6 | 0.00 | 0.67 | 0.00 | 79 | 1014.3 |
| 20260906153328 | 85 | 130 | 2.6 | 8.7 | 0.00 | 0.67 | 0.00 | 79 | 1014.3 |
| 20260906152317 | 85 | 123 | 3.5 | 8.7 | 0.00 | 0.67 | 0.00 | 82 | 1014.2 |
| 20260906151334 | 83 | 78 | 4.3 | 8.7 | 0.00 | 0.67 | 0.00 | 84 | 1014.2 |
| 20260906150328 | 82 | 105 | 3.5 | 7.8 | 0.00 | 0.67 | 0.00 | 86 | 1014.3 |
| 20260906145322 | 82 | 132 | 3.5 | 7.8 | 0.00 | 0.67 | 0.00 | 87 | 1014.1 |
| 20260906144322 | 82 | 73 | 3.5 | 7.8 | 0.00 | 0.67 | 0.00 | 89 | 1014.1 |
| 20260906143312 | 81 | 49 | 2.6 | 7.8 | 0.00 | 0.67 | 0.00 | 90 | 1014.2 |
| 20260906142310 | 80 | 61 | 4.3 | 8.7 | 0.00 | 0.67 | 0.00 | 91 | 1014.2 |
| 20260906141348 | 79 | 345 | 2.6 | 7.0 | 0.00 | 0.67 | 0.00 | 92 | 1014.1 |
| 20260906140318 | 79 | 42 | 3.5 | 7.8 | 0.00 | 0.67 | 0.00 | 93 | 1013.9 |
| 20260906135314 | 78 | 321 | 2.6 | 7.8 | 0.00 | 0.67 | 0.00 | 94 | 1013.9 |
| 20260906134312 | 78 | 54 | 4.3 | 7.0 | 0.00 | 0.67 | 0.00 | 94 | 1013.9 |
| 20260906133331 | 78 | 345 | 3.5 | 7.8 | 0.00 | 0.67 | 0.00 | 94 | 1013.7 |
| 20260906132345 | 78 | 38 | 1.7 | 5.2 | 0.00 | 0.67 | 0.00 | 95 | 1013.7 |
| 20260906131325 | 78 | 355 | 2.6 | 7.8 | 0.00 | 0.67 | 0.00 | 95 | 1013.7 |
| 20260906130345 | 78 | 337 | 2.6 | 10.4 | 0.00 | 0.67 | 0.00 | 95 | 1013.5 |
| 20260906125313 | 77 | 360 | 2.6 | 7.8 | 0.00 | 0.67 | 0.00 | 96 | 1013.4 |
| 20260906124312 | 77 | 55 | 1.7 | 5.2 | 0.00 | 0.67 | 0.00 | 96 | 1013.3 |
| 20260906123327 | 77 | 91 | 1.7 | 7.0 | 0.00 | 0.67 | 0.00 | 97 | 1013.3 |
| 20260906122328 | 77 | 11 | 2.6 | 4.3 | 0.00 | 0.67 | 0.00 | 97 | 1013.3 |
| 20260906121321 | 76 | 19 | 1.7 | 4.3 | 0.00 | 0.67 | 0.00 | 97 | 1013.3 |
| 20260906120312 | 76 | 11 | 1.7 | 4.3 | 0.00 | 0.67 | 0.00 | 97 | 1013.2 |
| 20260906115310 | 75 | 351 | 0.9 | 2.6 | 0.00 | 0.67 | 0.00 | 97 | 1013.1 |
| 20260906114325 | 75 | 338 | 1.7 | 3.5 | 0.00 | 0.67 | 0.00 | 96 | 1013.1 |
| 20260906113325 | 75 | 348 | 1.7 | 5.2 | 0.00 | 0.67 | 0.00 | 96 | 1013.0 |
| 20260906112315 | 75 | 335 | 2.6 | 7.0 | 0.00 | 0.67 | 0.00 | 96 | 1012.9 |
| 20260906111309 | 75 | 323 | 2.6 | 3.5 | 0.00 | 0.67 | 0.00 | 96 | 1012.6 |
| 20260906110310 | 74 | 334 | 1.7 | 2.6 | 0.00 | 0.67 | 0.00 | 96 | 1012.5 |
| 20260906105324 | 74 | 329 | 0.9 | 2.6 | 0.00 | 0.67 | 0.00 | 96 | 1012.4 |
| 20260906104327 | 74 | 344 | 0.9 | 1.7 | 0.00 | 0.67 | 0.00 | 96 | 1012.2 |
| 20260906103322 | 74 | 313 | 0.0 | 3.5 | 0.00 | 0.67 | 0.00 | 96 | 1012.1 |
| 20260906102328 | 74 | 319 | 1.7 | 3.5 | 0.00 | 0.67 | 0.00 | 96 | 1012.1 |
| 20260906101348 | 74 | 340 | 0.9 | 4.3 | 0.00 | 0.67 | 0.00 | 96 | 1012.1 |
| 20260906100348 | 74 | 355 | 2.6 | 3.5 | 0.00 | 0.67 | 0.00 | 96 | 1012.1 |
| 20260906095350 | 73 | 334 | 1.7 | 3.5 | 0.00 | 0.67 | 0.00 | 96 | 1012.1 |
| 20260906094324 | 73 | 342 | 0.9 | 3.5 | 0.00 | 0.67 | 0.00 | 96 | 1012.0 |
| 20260906093321 | 73 | 360 | 1.7 | 3.5 | 0.00 | 0.67 | 0.00 | 96 | 1012.0 |
| 20260906092322 | 73 | 348 | 1.7 | 2.6 | 0.00 | 0.67 | 0.00 | 95 | 1011.9 |
| 20260906091319 | 73 | 338 | 1.7 | 2.6 | 0.00 | 0.67 | 0.00 | 95 | 1011.8 |
| 20260906090315 | 73 | 177 | 0.9 | 0.9 | 0.00 | 0.67 | 0.00 | 95 | 1011.5 |
| 20260906085317 | 73 | 182 | 0.9 | 1.7 | 0.00 | 0.67 | 0.00 | 95 | 1011.6 |
| 20260906084312 | 74 | 296 | 0.9 | 1.7 | 0.00 | 0.67 | 0.00 | 95 | 1011.3 |
| 20260906083333 | 73 | 281 | 1.7 | 2.6 | 0.00 | 0.67 | 0.00 | 96 | 1011.3 |
| 20260906082322 | 73 | 261 | 1.7 | 3.5 | 0.00 | 0.67 | 0.00 | 95 | 1011.2 |
| 20260906081327 | 73 | 170 | 1.7 | 3.5 | 0.00 | 0.67 | 0.00 | 96 | 1011.2 |
| 20260906080324 | 73 | 205 | 0.9 | 2.6 | 0.00 | 0.67 | 0.00 | 95 | 1011.3 |
| 20260906075318 | 73 | 174 | 0.9 | 3.5 | 0.00 | 0.67 | 0.00 | 95 | 1011.2 |
| 20260906074322 | 73 | 166 | 2.6 | 4.3 | 0.00 | 0.67 | 0.00 | 95 | 1011.1 |
| 20260906073319 | 73 | 199 | 2.6 | 3.5 | 0.00 | 0.67 | 0.00 | 95 | 1011.1 |
| 20260906072313 | 73 | 208 | 1.7 | 3.5 | 0.00 | 0.67 | 0.00 | 95 | 1011.3 |
| 20260906071314 | 73 | 124 | 1.7 | 3.5 | 0.00 | 0.67 | 0.00 | 95 | 1011.4 |
| 20260906070309 | 73 | 182 | 0.9 | 2.6 | 0.00 | 0.67 | 0.00 | 95 | 1011.4 |
| 20260906065331 | 73 | 129 | 0.9 | 4.3 | 0.00 | 0.67 | 0.00 | 95 | 1011.4 |
| 20260906064335 | 73 | 209 | 0.0 | 1.7 | 0.00 | 0.67 | 0.00 | 95 | 1011.3 |
| 20260906063333 | 73 | 123 | 0.0 | 0.9 | 0.00 | 0.67 | 0.00 | 94 | 1011.3 |
| 20260906062333 | 73 | 123 | 0.9 | 2.6 | 0.00 | 0.67 | 0.00 | 94 | 1011.3 |
| 20260906061327 | 74 | 321 | 0.0 | 0.9 | 0.00 | 0.67 | 0.00 | 94 | 1011.4 |
| 20260906060322 | 74 | 321 | 0.0 | 2.6 | 0.00 | 0.67 | 0.00 | 94 | 1011.4 |
| 20260906055324 | 74 | 290 | 0.9 | 2.6 | 0.00 | 0.67 | 0.00 | 94 | 1011.5 |
| 20260906054321 | 74 | 332 | 1.7 | 2.6 | 0.00 | 0.67 | 0.00 | 94 | 1011.6 |
| 20260906053315 | 74 | 280 | 0.9 | 1.7 | 0.00 | 0.67 | 0.00 | 94 | 1011.6 |
| 20260906052315 | 74 | 281 | 0.0 | 2.6 | 0.00 | 0.67 | 0.00 | 94 | 1011.8 |
| 20260906051327 | 74 | 261 | 1.7 | 3.5 | 0.00 | 0.67 | 0.00 | 94 | 1012.0 |
| 20260906050327 | 74 | 271 | 0.9 | 2.6 | 0.00 | 0.67 | 0.00 | 94 | 1012.0 |
| 20260906045322 | 74 | 286 | 0.9 | 1.7 | 0.00 | 0.67 | 0.00 | 94 | 1012.0 |
| 20260906044318 | 74 | 314 | 0.9 | 1.7 | 0.00 | 0.67 | 0.00 | 94 | 1012.3 |
| 20260906043318 | 75 | 317 | 0.9 | 1.7 | 0.00 | 0.67 | 0.00 | 95 | 1012.4 |
| 20260906042315 | 75 | 360 | 0.0 | 0.9 | 0.00 | 0.67 | 0.00 | 95 | 1012.3 |
| 20260906041319 | 75 | 69 | 0.0 | 2.6 | 0.00 | 0.67 | 0.00 | 95 | 1012.4 |
| 20260906040309 | 75 | 74 | 0.0 | 1.7 | 0.00 | 0.67 | 0.00 | 94 | 1012.4 |
| 20260906035333 | 75 | 325 | 0.9 | 1.7 | 0.00 | 0.67 | 0.17 | 94 | 1012.4 |
| 20260906034327 | 75 | 308 | 0.0 | 1.7 | 0.00 | 0.67 | 0.17 | 94 | 1012.4 |
| 20260906033328 | 75 | 324 | 0.9 | 1.7 | 0.00 | 0.67 | 0.17 | 94 | 1012.6 |
| 20260906032326 | 75 | 331 | 0.9 | 1.7 | 0.00 | 0.67 | 0.17 | 94 | 1012.5 |
| 20260906031322 | 75 | 223 | 0.9 | 2.6 | 0.00 | 0.67 | 0.17 | 94 | 1012.6 |
| 20260906030326 | 75 | 181 | 1.7 | 2.6 | 0.00 | 0.67 | 0.17 | 94 | 1012.5 |
| 20260906025319 | 75 | 244 | 1.7 | 2.6 | 0.00 | 0.67 | 0.17 | 94 | 1012.5 |
| 20260906024318 | 75 | 258 | 1.7 | 2.6 | 0.00 | 0.67 | 0.17 | 94 | 1012.6 |
| 20260906023311 | 75 | 244 | 1.7 | 2.6 | 0.00 | 0.67 | 0.17 | 94 | 1012.6 |
| 20260906022332 | 75 | 280 | 1.7 | 2.6 | 0.00 | 0.67 | 0.17 | 94 | 1012.7 |
| 20260906021327 | 75 | 305 | 0.0 | 0.9 | 0.00 | 0.67 | 0.17 | 94 | 1012.6 |
| 20260906020314 | 75 | 340 | 0.9 | 1.7 | 0.00 | 0.67 | 0.17 | 94 | 1012.3 |
| 20260906015310 | 75 | 269 | 0.9 | 2.6 | 0.00 | 0.67 | 0.17 | 94 | 1012.3 |
| 20260906014332 | 76 | 242 | 0.9 | 2.6 | 0.00 | 0.67 | 0.17 | 94 | 1012.4 |
| 20260906013309 | 76 | 265 | 1.7 | 2.6 | 0.00 | 0.67 | 0.17 | 94 | 1012.3 |
| 20260906012326 | 76 | 208 | 2.6 | 4.3 | 0.00 | 0.67 | 0.17 | 94 | 1012.3 |
| 20260906011329 | 76 | 273 | 1.7 | 4.3 | 0.00 | 0.67 | 0.17 | 94 | 1012.3 |
| 20260906010325 | 76 | 123 | 2.6 | 4.3 | 0.00 | 0.67 | 0.17 | 94 | 1012.6 |
| 20260906005350 | 76 | 193 | 1.7 | 3.5 | 0.00 | 0.67 | 0.17 | 94 | 1012.5 |
| 20260906004326 | 76 | 144 | 1.7 | 3.5 | 0.00 | 0.67 | 0.17 | 94 | 1012.5 |
| 20260906003350 | 76 | 71 | 0.9 | 4.3 | 0.00 | 0.67 | 0.17 | 94 | 1012.4 |
| 20260906002327 | 76 | 124 | 1.7 | 4.3 | 0.00 | 0.67 | 0.17 | 94 | 1012.1 |
| 20260906001332 | 76 | 299 | 0.9 | 3.5 | 0.00 | 0.67 | 0.17 | 93 | 1011.3 |
| 20260906000323 | 76 | 258 | 2.6 | 5.2 | 0.00 | 0.67 | 0.17 | 93 | 1011.1 |
| 20260905235318 | 76 | 277 | 1.7 | 6.1 | 0.00 | 0.67 | 0.17 | 93 | 1010.9 |
| 20260905234318 | 76 | 271 | 3.5 | 6.1 | 0.00 | 0.67 | 0.17 | 94 | 1010.8 |
| 20260905233315 | 76 | 244 | 2.6 | 3.5 | 0.00 | 0.67 | 0.17 | 93 | 1010.8 |
| 20260905232312 | 76 | 269 | 1.7 | 3.5 | 0.00 | 0.67 | 0.17 | 94 | 1010.9 |
| 20260905231317 | 76 | 93 | 0.0 | 1.7 | 0.00 | 0.67 | 0.17 | 94 | 1010.9 |
| 20260905230312 | 76 | 261 | 0.9 | 2.6 | 0.04 | 0.67 | 0.17 | 93 | 1010.8 |
| 20260905225334 | 76 | 282 | 1.7 | 4.3 | 0.08 | 0.67 | 0.17 | 93 | 1010.4 |
| 20260905224328 | 77 | 282 | 2.6 | 5.2 | 0.12 | 0.67 | 0.17 | 94 | 1010.3 |
| 20260905223331 | 77 | 284 | 2.6 | 4.3 | 0.12 | 0.67 | 0.17 | 94 | 1010.0 |
| 20260905222327 | 77 | 271 | 1.7 | 2.6 | 0.12 | 0.67 | 0.17 | 94 | 1009.4 |
| 20260905221323 | 76 | 284 | 0.9 | 2.6 | 0.12 | 0.67 | 0.17 | 93 | 1009.5 |
| 20260905220327 | 76 | 269 | 0.9 | 5.2 | 0.24 | 0.63 | 0.16 | 93 | 1010.2 |
| 20260905215320 | 76 | 236 | 4.3 | 11.3 | 0.43 | 0.59 | 0.15 | 93 | 1010.9 |
| 20260905214343 | 76 | 184 | 1.7 | 9.6 | 0.47 | 0.55 | 0.14 | 92 | 1010.0 |
| 20260905213315 | 76 | 53 | 4.3 | 10.4 | 0.55 | 0.55 | 0.14 | 91 | 1010.5 |
| 20260905212315 | 76 | 95 | 2.6 | 7.8 | 0.55 | 0.55 | 0.14 | 90 | 1011.5 |
| 20260905211355 | 77 | 269 | 1.7 | 10.4 | 0.55 | 0.55 | 0.14 | 89 | 1012.1 |
| 20260905210323 | 78 | 285 | 7.8 | 20.9 | 0.35 | 0.35 | 0.09 | 89 | 1012.6 |
| 20260905205313 | 79 | 243 | 12.2 | 27.8 | 0.16 | 0.16 | 0.04 | 85 | 1011.0 |
| 20260905204312 | 86 | 273 | 15.6 | 29.5 | 0.04 | 0.04 | 0.01 | 70 | 1010.8 |
| 20260905203325 | 98 | 236 | 5.2 | 10.4 | 0.00 | 0.00 | 0.00 | 56 | 1010.5 |
| 20260905202327 | 99 | 256 | 1.7 | 2.6 | 0.00 | 0.00 | 0.00 | 54 | 1009.6 |
| 20260905201323 | 100 | 259 | 1.7 | 3.5 | 0.00 | 0.00 | 0.00 | 51 | 1009.4 |
| 20260905200321 | 101 | 236 | 0.9 | 3.5 | 0.00 | 0.00 | 0.00 | 51 | 1009.4 |
| 20260905195320 | 101 | 300 | 1.7 | 6.1 | 0.00 | 0.00 | 0.00 | 50 | 1009.5 |
| 20260905194342 | 102 | 321 | 2.6 | 7.8 | 0.00 | 0.00 | 0.00 | 51 | 1009.7 |
| 20260905193315 | 102 | 192 | 2.6 | 7.0 | 0.00 | 0.00 | 0.00 | 47 | 1009.8 |
| 20260905192337 | 103 | 243 | 1.7 | 4.3 | 0.00 | 0.00 | 0.00 | 49 | 1009.7 |
| 20260905191310 | 103 | 248 | 2.6 | 7.0 | 0.00 | 0.00 | 0.00 | 48 | 1009.6 |
| 20260905190330 | 103 | 271 | 4.3 | 6.1 | 0.00 | 0.00 | 0.00 | 50 | 1009.9 |
| 20260905185320 | 102 | 244 | 4.3 | 8.7 | 0.00 | 0.00 | 0.00 | 50 | 1009.9 |
| 20260905184318 | 102 | 5 | 0.9 | 4.3 | 0.00 | 0.00 | 0.00 | 54 | 1010.1 |
| 20260905183323 | 101 | 53 | 2.6 | 3.5 | 0.00 | 0.00 | 0.00 | 53 | 1010.3 |
| 20260905182319 | 100 | 319 | 2.6 | 4.3 | 0.00 | 0.00 | 0.00 | 54 | 1010.6 |
| 20260905181312 | 100 | 326 | 1.7 | 4.3 | 0.00 | 0.00 | 0.00 | 55 | 1010.8 |
| 20260905180329 | 101 | 315 | 2.6 | 4.3 | 0.00 | 0.00 | 0.00 | 54 | 1010.9 |
| 20260905175320 | 100 | 338 | 2.6 | 7.0 | 0.00 | 0.00 | 0.00 | 55 | 1011.3 |
| 20260905174311 | 101 | 172 | 2.6 | 7.8 | 0.00 | 0.00 | 0.00 | 54 | 1011.4 |
| 20260905173327 | 100 | 286 | 3.5 | 6.1 | 0.00 | 0.00 | 0.00 | 56 | 1011.7 |
| 20260905172325 | 100 | 225 | 1.7 | 7.0 | 0.00 | 0.00 | 0.00 | 55 | 1011.9 |
| 20260905171317 | 100 | 227 | 4.3 | 7.0 | 0.00 | 0.00 | 0.00 | 54 | 1012.0 |
| 20260905170334 | 100 | 355 | 1.7 | 3.5 | 0.00 | 0.00 | 0.00 | 56 | 1012.1 |
| 20260905165341 | 99 | 252 | 2.6 | 6.1 | 0.00 | 0.00 | 0.00 | 57 | 1012.2 |
| 20260905164339 | 99 | 231 | 4.3 | 6.1 | 0.00 | 0.00 | 0.00 | 60 | 1012.3 |
| 20260905163334 | 98 | 284 | 2.6 | 7.0 | 0.00 | 0.00 | 0.00 | 59 | 1012.5 |
| 20260905162309 | 98 | 330 | 1.7 | 5.2 | 0.00 | 0.00 | 0.00 | 60 | 1012.6 |